1487829600.37,44955,10.5,72172.0,-4.97,-5.89,-6.01,0,*50
1487829601.65,44956,10.5,72218.8,-4.97,-5.81,-5.89,0,*58
1487829602.93,44957,10.5,72216.5,-4.97,-5.81,-5.81,0,*51
1487829604.18,44958,10.5,72210.3,-4.97,-5.81,-6.01,0,*55
1487829605.42,44959,10.5,72202.3,-4.95,-5.89,-5.93,0,*56
1487829606.67,44960,10.5,72226.0,-4.97,-5.89,-6.01,0,*56
1487829607.95,44961,10.5,72226.8,-4.97,-5.89,-5.93,0,*5F
1487829609.22,44962,10.5,72228.0,-4.97,-5.81,-5.81,0,*57
1487829610.5,44963,10.5,72230.8,-4.97,-5.89,-5.89,0,*56
1487829611.78,44964,10.5,72234.3,-4.97,-5.81,-5.89,0,*59
1487829613.06,44965,10.5,72222.0,-4.97,-5.81,-5.89,0,*58
1487829614.28,44966,10.5,72220.5,-4.95,-5.93,-6.13,0,*5A
1487829615.5,44967,10.5,72214.8,-4.97,-6.01,-6.05,0,*56
1487829616.72,44968,10.5,72206.8,-4.97,-6.01,-6.05,0,*59
1487829617.95,44969,10.5,72196.0,-4.97,-6.01,-6.13,0,*5F
1487829619.17,44970,10.5,72196.3,-4.97,-6.01,-6.05,0,*50
1487829620.39,44971,10.5,72194.8,-4.97,-6.01,-6.05,0,*51
1487829621.61,44972,10.5,72196.5,-4.97,-6.01,-6.05,0,*52
1487829622.89,44973,10.5,72206.3,-4.97,-5.89,-5.93,0,*5C
1487829624.16,44974,10.5,72212.3,-4.97,-5.81,-5.89,0,*58
1487829625.44,44975,10.5,72222.3,-4.97,-5.81,-5.89,0,*59
1487829626.72,44976,10.5,72224.3,-4.97,-5.89,-5.93,0,*59
1487829628.0,44977,10.5,72228.0,-4.97,-5.81,-5.93,0,*50
1487829629.24,44978,10.5,72228.5,-4.95,-5.81,-5.81,0,*5E
1487829630.52,44979,10.5,72234.5,-4.97,-5.81,-5.81,0,*5D
1487829631.77,44980,10.44,72236.8,-4.95,-5.81,-5.81,0,*59
1487829633.04,44981,10.5,72236.8,-4.97,-5.77,-5.89,0,*5B
1487829634.29,44982,10.5,72226.3,-4.95,-5.77,-5.81,0,*52
1487829635.53,44983,10.5,72212.3,-4.95,-5.77,-5.81,0,*53
1487829636.81,44984,10.5,72226.0,-4.97,-5.77,-5.81,0,*56
1487829638.06,44985,10.5,72216.0,-4.95,-5.81,-5.93,0,*5F
1487829639.34,44986,10.5,72208.5,-4.97,-5.89,-5.89,0,*5D
1487829640.58,44987,10.5,72222.5,-4.95,-5.81,-5.81,0,*5E
1487829641.86,44988,10.5,72210.3,-4.97,-5.81,-5.89,0,*5B
1487829643.11,44989,10.44,72206.3,-4.95,-5.93,-5.93,0,*50
1487829644.39,44990,10.5,72204.5,-4.97,-5.81,-5.81,0,*5A
1487829645.67,44991,10.5,72224.3,-4.97,-5.77,-5.89,0,*5A
1487829646.94,44992,10.5,72212.8,-4.97,-5.73,-5.81,0,*55
1487829648.21,44993,10.5,72210.5,-4.97,-5.77,-5.81,0,*50
1487829649.46,44994,10.44,72212.5,-4.95,-5.77,-5.89,0,*5D
1487829650.71,44995,10.5,72208.3,-4.95,-5.81,-5.89,0,*55
1487829651.96,44996,10.5,72226.3,-4.95,-5.89,-5.89,0,*5E
1487829653.2,44997,10.5,72216.8,-4.95,-5.81,-5.89,0,*57
1487829654.48,44998,10.5,72206.8,-4.97,-5.89,-5.93,0,*59
1487829655.73,44999,10.5,72208.3,-4.95,-5.81,-5.81,0,*51
1487829656.98,45000,10.44,72204.8,-4.95,-5.89,-5.89,0,*59
1487829658.22,45001,10.5,72202.8,-4.95,-5.81,-5.93,0,*5B
1487829659.44,45002,10.5,72198.3,-4.95,-5.93,-6.01,0,*53
1487829660.66,45003,10.5,72200.0,-4.95,-5.81,-6.01,0,*51
1487829661.88,45004,10.5,72196.5,-4.95,-5.89,-6.05,0,*5A
1487829663.07,45005,10.5,72206.0,-4.95,-6.05,-6.13,0,*5B
1487829664.28,45006,10.5,72208.8,-4.95,-5.81,-6.01,0,*54
1487829665.53,45007,10.44,72210.3,-4.95,-5.89,-5.93,0,*55
1487829666.75,45008,10.5,72222.5,-4.95,-5.89,-6.01,0,*52
1487829667.94,45009,10.5,72220.0,-4.95,-6.01,-6.13,0,*53
1487829669.13,45010,10.5,72220.0,-4.95,-6.01,-6.13,0,*5B
1487829670.32,45011,10.5,72240.3,-4.95,-6.01,-6.13,0,*5A
1487829671.54,45012,10.5,72246.0,-4.97,-6.01,-6.01,0,*58
1487829672.76,45013,10.5,72230.0,-4.97,-6.05,-6.13,0,*5E
1487829673.95,45014,10.5,72212.3,-4.95,-6.01,-6.05,0,*58
1487829675.17,45015,10.44,72200.8,-4.95,-6.05,-6.19,0,*50
1487829676.39,45016,10.5,72204.0,-4.95,-5.89,-6.01,0,*5D
1487829677.64,45017,10.44,72208.0,-4.95,-5.81,-5.93,0,*5C
1487829678.88,45018,10.5,72204.3,-4.95,-5.81,-5.93,0,*53
1487829680.1,45019,10.5,72194.3,-4.95,-5.89,-6.05,0,*56
1487829681.35,45020,10.5,72210.0,-4.95,-5.93,-5.93,0,*5B
1487829682.57,45021,10.5,72232.8,-4.95,-5.89,-6.01,0,*59
1487829683.78,45022,10.5,72224.8,-4.95,-5.89,-6.01,0,*5A
1487829685.06,45023,10.5,72220.5,-4.97,-5.89,-5.93,0,*51
1487829686.28,45024,10.5,72198.3,-4.95,-5.93,-6.05,0,*53
1487829687.56,45025,10.44,72204.8,-4.97,-5.81,-5.93,0,*5F
1487829688.8,45026,10.5,72208.5,-4.95,-5.81,-5.93,0,*5E
1487829690.05,45027,10.5,72220.3,-4.95,-5.81,-5.89,0,*54
1487829691.33,45028,10.44,72222.0,-4.97,-5.81,-5.93,0,*52
1487829692.55,45029,10.5,72184.5,-4.95,-5.89,-6.01,0,*51
1487829693.79,45030,10.44,72184.8,-4.95,-5.89,-5.93,0,*51
1487829695.04,45031,10.44,72216.3,-4.95,-5.89,-5.93,0,*50
1487829696.29,45032,10.5,72196.0,-4.97,-5.93,-6.13,0,*51
1487829697.48,45033,10.5,72204.0,-4.95,-6.01,-6.05,0,*5D
1487829698.7,45034,10.5,72210.5,-4.95,-5.93,-6.01,0,*56
1487829699.92,45035,10.44,72176.8,-4.95,-5.93,-6.01,0,*57
1487829701.17,45036,10.5,72186.0,-4.95,-5.81,-5.93,0,*5F
1487829702.38,45037,10.5,72158.5,-4.95,-5.89,-6.01,0,*5E
1487829703.57,45038,10.44,72184.5,-4.95,-6.05,-6.05,0,*52
1487829704.79,45039,10.44,72182.8,-4.95,-5.93,-6.13,0,*58
1487829706.04,45040,10.44,72190.5,-4.97,-5.93,-6.13,0,*54
1487829707.26,45041,10.5,72212.3,-4.95,-5.93,-6.05,0,*50
1487829708.48,45042,10.44,72208.8,-4.97,-6.01,-6.05,0,*59
1487829709.67,45043,10.5,72224.0,-4.95,-6.01,-6.05,0,*5A
1487829710.89,45044,10.5,72220.8,-4.95,-5.89,-6.01,0,*5A
1487829712.14,45045,10.5,72226.3,-4.95,-5.89,-5.93,0,*53
1487829713.36,45046,10.5,72228.8,-4.95,-5.93,-6.01,0,*53
1487829714.58,45047,10.5,72228.0,-4.97,-6.01,-6.05,0,*5C
1487829715.8,45048,10.5,72220.5,-4.97,-6.05,-6.05,0,*57
1487829717.01,45049,10.5,72196.3,-4.95,-6.13,-6.27,0,*53
1487829718.24,45050,10.5,72200.5,-4.97,-6.01,-6.05,0,*5A
1487829719.48,45051,10.5,72204.8,-4.97,-5.89,-6.01,0,*5C
1487829720.7,45052,10.5,72222.3,-4.95,-5.89,-6.01,0,*5D
1487829721.89,45053,10.5,72200.5,-4.95,-6.01,-6.05,0,*5B
1487829723.14,45054,10.5,72184.8,-4.97,-6.13,-6.27,0,*5D
1487829724.38,45055,10.5,72194.3,-4.97,-6.27,-6.39,0,*54
1487829725.6,45056,10.5,72158.5,-4.95,-6.27,-6.39,0,*55
1487829726.82,45057,10.5,72190.5,-4.97,-6.31,-6.39,0,*51
1487829728.01,45058,10.5,72182.8,-4.95,-6.31,-6.39,0,*5C
1487829729.21,45059,10.5,72174.5,-4.95,-6.31,-6.43,0,*50
1487829730.43,45060,10.5,72182.8,-4.97,-6.31,-6.39,0,*55
1487829731.69,45061,10.44,72178.8,-4.97,-6.19,-6.31,0,*56
1487829732.88,45062,10.5,72178.0,-5.01,-5.97,-6.09,0,*55
1487829734.1,45063,10.44,72168.0,-5.01,-5.85,-6.05,0,*5B
1487829735.35,45064,10.44,72162.8,-5.01,-5.85,-5.93,0,*50
1487829736.57,45065,10.5,72158.5,-4.97,-6.01,-6.01,0,*58
1487829737.82,45066,10.5,72160.3,-4.97,-6.05,-6.19,0,*56
1487829739.07,45067,10.44,72148.3,-4.97,-6.13,-6.27,0,*5D
1487829740.31,45068,10.5,72148.0,-4.97,-6.27,-6.39,0,*5A
1487829741.59,45069,10.5,72160.3,-4.97,-6.19,-6.27,0,*59
1487829742.81,45070,10.5,72164.5,-4.97,-6.01,-6.05,0,*58
1487829744.03,45071,10.5,72174.0,-4.97,-6.01,-6.05,0,*59
1487829745.28,45072,10.44,72178.3,-4.97,-5.89,-6.01,0,*5D
1487829746.47,45073,10.5,72178.5,-5.01,-5.97,-6.05,0,*59
1487829747.74,45074,10.5,72182.0,-4.97,-5.89,-5.93,0,*53
1487829749.02,45075,10.5,72182.5,-4.97,-5.81,-5.89,0,*51
1487829750.3,45076,10.44,72188.3,-4.97,-5.81,-5.89,0,*52
1487829751.58,45077,10.5,72192.8,-4.97,-5.81,-5.89,0,*53
1487829752.86,45078,10.5,72196.3,-4.97,-5.81,-5.89,0,*5C
1487829754.05,45079,10.5,72196.0,-4.95,-6.01,-6.13,0,*54
1487829755.27,45080,10.5,72202.8,-4.95,-5.93,-6.01,0,*59
1487829756.52,45081,10.44,72198.0,-4.95,-5.89,-5.89,0,*50
1487829757.8,45082,10.5,72206.0,-4.97,-5.81,-5.89,0,*59
1487829759.07,45083,10.5,72204.5,-4.97,-5.81,-5.93,0,*53
1487829760.35,45084,10.44,72200.8,-4.97,-5.93,-5.93,0,*57
1487829761.6,45085,10.5,72208.8,-4.97,-5.81,-6.01,0,*5D
1487829762.88,45086,10.5,72216.3,-4.97,-5.81,-5.93,0,*56
1487829764.16,45087,10.44,72214.8,-4.97,-5.89,-5.93,0,*5F
1487829765.41,45088,10.5,72220.5,-4.97,-5.93,-6.01,0,*53
1487829766.65,45089,10.5,72236.0,-4.95,-5.81,-5.93,0,*5B
1487829767.87,45090,10.5,72242.8,-4.95,-5.89,-6.01,0,*53
1487829769.06,45091,10.5,72244.8,-4.95,-6.05,-6.13,0,*56
1487829770.25,45092,10.44,72240.3,-4.95,-6.01,-6.13,0,*51
1487829771.5,45093,10.5,72240.5,-4.97,-5.93,-6.05,0,*5D
1487829772.75,45094,10.5,72236.5,-4.97,-5.93,-6.05,0,*5A
1487829774.03,45095,10.5,72234.8,-4.97,-5.81,-5.93,0,*54
1487829775.27,45096,10.5,72234.8,-4.95,-5.81,-5.89,0,*5E
1487829776.52,45097,10.5,72234.5,-4.95,-5.81,-5.81,0,*57
1487829777.8,45098,10.44,72230.0,-4.97,-5.77,-5.81,0,*53
1487829779.04,45099,10.5,72226.8,-4.95,-5.77,-5.89,0,*58
1487829780.29,45100,10.44,72222.3,-4.95,-5.77,-5.89,0,*59
1487829781.54,45101,10.5,72220.8,-4.95,-5.77,-5.89,0,*58
1487829782.82,45102,10.44,72218.3,-4.97,-5.89,-5.93,0,*53
1487829784.06,45103,10.44,72220.8,-4.95,-5.81,-5.93,0,*58
1487829785.31,45104,10.5,72226.3,-4.95,-5.77,-5.89,0,*5D
1487829786.58,45105,10.44,72216.0,-4.97,-5.73,-5.81,0,*52
1487829787.85,45106,10.5,72222.3,-4.97,-5.73,-5.81,0,*51
1487829789.1,45107,10.5,72218.8,-4.95,-5.77,-5.89,0,*5E
1487829790.32,45108,10.5,72216.8,-4.95,-5.81,-6.01,0,*5B
1487829791.57,45109,10.5,72222.8,-4.93,-5.85,-5.97,0,*54
1487829792.81,45110,10.5,72230.0,-4.97,-5.89,-6.01,0,*58
1487829794.06,45111,10.5,72234.5,-4.95,-5.89,-5.93,0,*53
1487829795.34,45112,10.5,72238.3,-4.97,-5.81,-5.81,0,*59
1487829796.62,45113,10.5,72244.0,-4.97,-5.89,-5.89,0,*58
1487829797.86,45114,10.5,72242.0,-4.95,-5.81,-5.93,0,*5E
1487829799.08,45115,10.44,72240.3,-4.95,-5.93,-6.05,0,*50
1487829800.3,45116,10.44,72242.8,-4.95,-5.89,-6.01,0,*5C
1487829801.52,45117,10.5,72242.8,-4.95,-5.89,-6.01,0,*5D
1487829802.71,45118,10.5,72244.8,-4.95,-6.01,-6.13,0,*52
1487829803.9,45119,10.5,72238.0,-4.95,-6.05,-6.13,0,*57
1487829805.09,45120,10.5,72230.8,-4.95,-6.01,-6.13,0,*59
1487829806.31,45121,10.5,72216.0,-4.97,-6.05,-6.13,0,*5E
1487829807.53,45122,10.5,72208.8,-4.95,-6.05,-6.19,0,*55
1487829808.75,45123,10.5,72198.3,-4.95,-6.13,-6.19,0,*53
1487829809.97,45124,10.5,72192.3,-4.97,-6.01,-6.05,0,*58
1487829811.22,45125,10.44,72198.0,-4.97,-5.93,-6.13,0,*56
1487829812.44,45126,10.44,72200.3,-4.97,-6.01,-6.01,0,*5E
1487829813.69,45127,10.5,72198.5,-4.97,-5.93,-6.13,0,*54
1487829814.94,45128,10.44,72188.3,-4.97,-6.01,-6.19,0,*59
1487829816.17,45129,10.44,72188.8,-4.95,-6.01,-6.19,0,*5A
1487829817.38,45130,10.5,72196.5,-4.97,-6.05,-6.13,0,*5E
1487829818.6,45131,10.5,72206.5,-4.97,-6.05,-6.13,0,*5F
1487829819.82,45132,10.44,72208.5,-4.95,-6.13,-6.27,0,*5E
1487829821.07,45133,10.44,72224.0,-4.97,-6.13,-6.27,0,*5D
1487829822.32,45134,10.44,72226.0,-4.97,-6.13,-6.19,0,*57
1487829823.52,45135,10.5,72232.8,-4.95,-6.13,-6.13,0,*5E
1487829824.77,45136,10.5,72222.3,-4.97,-6.13,-6.19,0,*55
1487829825.99,45137,10.5,72220.8,-4.95,-6.27,-6.31,0,*5B
1487829827.24,45138,10.44,72216.3,-4.97,-6.19,-6.31,0,*5B
1487829828.47,45139,10.5,72192.3,-4.97,-6.39,-6.43,0,*5D
1487829829.69,45140,10.44,72170.3,-4.97,-6.31,-6.43,0,*5B
1487829830.92,45141,10.5,72198.8,-4.97,-6.13,-6.31,0,*5F
1487829832.12,45142,10.5,72198.0,-5.01,-6.35,-6.35,0,*52
1487829833.32,45143,10.44,72166.5,-5.01,-6.43,-6.47,0,*57
1487829834.54,45144,10.44,72144.8,-5.03,-6.31,-6.47,0,*57
1487829835.76,45145,10.5,72146.3,-5.03,-6.31,-6.43,0,*52
1487829836.98,45146,10.5,72134.8,-5.03,-6.31,-6.35,0,*50
1487829838.2,45147,10.5,72136.8,-5.03,-6.31,-6.47,0,*54
1487829839.4,45148,10.44,72154.3,-5.01,-6.35,-6.47,0,*5D
1487829840.6,45149,10.5,72162.0,-5.01,-6.43,-6.47,0,*5D
1487829841.83,45150,10.5,72176.8,-5.03,-6.35,-6.35,0,*53
1487829843.05,45151,10.5,72182.8,-5.01,-6.23,-6.31,0,*53
1487829844.24,45152,10.5,72156.3,-5.01,-6.31,-6.35,0,*57
1487829845.51,45153,10.5,72170.8,-5.03,-6.23,-6.23,0,*50
1487829846.76,45154,10.5,72172.5,-5.03,-6.19,-6.31,0,*5D
1487829848.01,45155,10.5,72172.3,-5.03,-6.19,-6.31,0,*5C
1487829849.23,45156,10.44,72182.3,-5.01,-6.23,-6.31,0,*54
1487829850.48,45157,10.5,72200.3,-5.03,-6.19,-6.31,0,*5E
1487829851.68,45158,10.5,72154.8,-5.05,-6.35,-6.47,0,*58
1487829852.91,45159,10.5,72146.8,-5.03,-6.31,-6.43,0,*5F
1487829854.12,45160,10.5,72154.8,-5.03,-6.05,-6.09,0,*5C
1487829855.37,45161,10.5,72152.5,-5.03,-6.09,-6.19,0,*50
1487829856.59,45162,10.5,72160.5,-5.05,-6.23,-6.39,0,*5F
1487829857.8,45163,10.5,72152.8,-5.05,-6.35,-6.35,0,*55
1487829859.01,45164,10.5,72206.3,-5.05,-6.27,-6.39,0,*5D
1487829860.24,45165,10.5,72196.5,-5.05,-6.13,-6.27,0,*54
1487829861.46,45166,10.5,72206.0,-5.05,-6.23,-6.35,0,*57
1487829862.71,45167,10.5,72198.3,-5.05,-6.23,-6.23,0,*51
1487829863.93,45168,10.5,72192.3,-5.05,-6.09,-6.23,0,*56
1487829865.13,45169,10.5,72206.0,-5.05,-6.09,-6.13,0,*54
1487829866.35,45170,10.5,72166.0,-5.05,-6.23,-6.35,0,*50
1487829867.55,45171,10.5,72184.0,-5.05,-6.13,-6.13,0,*56
1487829868.75,45172,10.44,72168.0,-5.05,-6.13,-6.35,0,*51
1487829869.98,45173,10.5,72190.3,-5.05,-6.13,-6.23,0,*57
1487829871.17,45174,10.5,72210.5,-5.05,-6.01,-6.13,0,*50
1487829872.37,45175,10.5,72214.5,-5.05,-6.09,-6.09,0,*52
1487829873.63,45176,10.5,72214.5,-5.05,-5.89,-5.89,0,*51
1487829874.85,45177,10.5,72212.8,-5.05,-5.89,-5.97,0,*5F
1487829876.07,45178,10.5,72212.3,-5.05,-5.89,-5.97,0,*50
1487829877.35,45179,10.5,72222.3,-5.03,-5.85,-5.93,0,*5F
1487829878.6,45180,10.5,72220.3,-5.01,-5.85,-5.85,0,*5C
1487829879.87,45181,10.5,72224.0,-5.03,-5.93,-5.93,0,*5F
1487829881.12,45182,10.5,72228.0,-5.03,-5.85,-5.97,0,*5F
1487829882.34,45183,10.5,72228.8,-5.01,-5.85,-5.97,0,*5C
1487829883.56,45184,10.5,72222.3,-5.03,-5.97,-6.05,0,*52
1487829884.8,45185,10.5,72228.5,-5.03,-5.93,-6.05,0,*57
1487829886.05,45186,10.5,72234.5,-5.03,-5.93,-6.05,0,*54
1487829887.24,45187,10.5,72220.5,-5.01,-6.09,-6.09,0,*5B
1487829888.45,45188,10.5,72224.3,-5.03,-6.05,-6.09,0,*5A
1487829889.7,45189,10.5,72228.5,-5.03,-6.05,-6.19,0,*5A
1487829890.92,45190,10.5,72234.0,-5.03,-6.09,-6.31,0,*54
1487829892.14,45191,10.5,72236.0,-5.03,-5.97,-6.09,0,*5A
1487829893.35,45192,10.5,72240.8,-5.03,-6.05,-6.09,0,*51
1487829894.54,45193,10.5,72244.0,-5.01,-5.97,-6.09,0,*5A
1487829895.79,45194,10.5,72254.8,-5.03,-5.93,-6.05,0,*57
1487829896.99,45195,10.5,72258.0,-5.05,-6.01,-6.09,0,*54
1487829898.18,45196,10.5,72252.8,-5.05,-6.01,-6.09,0,*57
1487829899.4,45197,10.5,72258.3,-5.03,-5.97,-5.97,0,*58
1487829900.62,45198,10.5,72260.0,-5.03,-5.97,-6.09,0,*53
1487829901.86,45199,10.5,72254.5,-5.03,-6.05,-6.19,0,*5B
1487829903.11,45200,10.5,72240.0,-5.03,-6.09,-6.19,0,*54
1487829904.32,45201,10.5,72242.5,-5.03,-6.05,-6.09,0,*58
1487829905.59,45202,10.5,72246.0,-5.03,-6.19,-6.23,0,*5E
1487829906.81,45203,10.5,72240.8,-5.03,-5.97,-6.09,0,*52
1487829908.03,45204,10.5,72236.0,-5.03,-5.97,-6.09,0,*55
1487829909.27,45205,10.5,72226.5,-5.03,-6.05,-6.19,0,*5D
1487829910.52,45206,10.5,72230.5,-5.03,-6.09,-6.19,0,*52
1487829911.77,45207,10.5,72236.8,-5.03,-6.09,-6.19,0,*53
1487829912.98,45208,10.5,72228.5,-5.03,-6.05,-6.05,0,*5D
1487829914.2,45209,10.5,72200.5,-5.03,-5.97,-6.09,0,*58
1487829915.4,45210,10.5,72180.8,-5.05,-6.09,-6.13,0,*59
1487829916.62,45211,10.5,72168.5,-5.05,-6.09,-6.23,0,*5B
1487829917.87,45212,10.5,72166.8,-5.05,-6.23,-6.27,0,*54
1487829919.09,45213,10.5,72174.5,-5.05,-6.09,-6.23,0,*59
1487829920.32,45214,10.5,72168.3,-5.05,-6.09,-6.23,0,*5E
1487829921.54,45215,10.5,72176.0,-5.05,-6.13,-6.27,0,*50
1487829922.74,45216,10.5,72186.3,-5.05,-6.13,-6.13,0,*54
1487829923.96,45217,10.5,72200.5,-5.05,-6.09,-6.23,0,*5D
1487829925.19,45218,10.5,72164.3,-5.05,-6.13,-6.27,0,*5D
1487829926.41,45219,10.5,72144.8,-5.05,-6.13,-6.27,0,*5C
1487829927.61,45220,10.5,72164.3,-5.05,-6.35,-6.39,0,*5D
1487829928.88,45221,10.5,72172.8,-5.07,-6.23,-6.27,0,*56
1487829930.12,45222,10.5,72178.8,-5.05,-6.23,-6.23,0,*53
1487829931.35,45223,10.5,72194.0,-5.05,-6.13,-6.27,0,*55
1487829932.57,45224,10.5,72200.0,-5.05,-6.13,-6.23,0,*56
1487829933.82,45225,10.5,72192.5,-5.05,-6.23,-6.27,0,*50
1487829935.04,45226,10.5,72192.5,-5.05,-6.27,-6.39,0,*58
1487829936.28,45227,10.5,72204.0,-5.05,-6.23,-6.27,0,*52
1487829937.53,45228,10.44,72212.5,-5.05,-6.23,-6.27,0,*5D
1487829938.75,45229,10.5,72218.5,-5.05,-6.13,-6.27,0,*5F
1487829939.95,45230,10.5,72216.3,-5.05,-6.13,-6.09,0,*5B
1487829941.17,45231,10.44,72222.8,-5.05,-6.13,-6.23,0,*52
1487829942.42,45232,10.5,72200.3,-5.07,-6.13,-6.27,0,*57
1487829943.66,45233,10.5,72182.0,-5.07,-6.27,-6.35,0,*52
1487829944.89,45234,10.5,72182.8,-5.07,-6.35,-6.35,0,*56
1487829946.13,45235,10.5,72192.5,-5.05,-6.27,-6.23,0,*51
1487829947.35,45236,10.5,72198.8,-5.07,-6.01,-6.13,0,*57
1487829948.56,45237,10.5,72192.3,-5.07,-6.01,-6.09,0,*5D
1487829949.81,45238,10.5,72208.3,-5.07,-6.09,-6.23,0,*52
1487829951.03,45239,10.5,72220.8,-5.07,-6.01,-6.13,0,*58
1487829952.22,45240,10.5,72222.0,-5.05,-6.01,-6.13,0,*54
1487829953.44,45241,10.44,72220.5,-5.07,-6.01,-6.13,0,*57
1487829954.68,45242,10.5,72220.3,-5.07,-6.13,-6.23,0,*54
1487829955.9,45243,10.5,72214.5,-5.07,-6.09,-6.13,0,*5D
1487829957.1,45244,10.5,72208.3,-5.05,-6.01,-6.13,0,*50
1487829958.32,45245,10.5,72214.3,-5.07,-5.97,-6.09,0,*54
1487829959.56,45246,10.5,72210.0,-5.07,-5.89,-5.97,0,*5C
1487829960.82,45247,10.5,72210.5,-5.05,-5.89,-5.89,0,*50
1487829962.04,45248,10.5,72216.8,-5.05,-5.85,-5.97,0,*5C
1487829963.3,45249,10.5,72218.5,-5.05,-5.85,-5.89,0,*52
1487829964.56,45250,10.5,72208.5,-5.05,-5.85,-5.89,0,*5A
1487829965.78,45251,10.5,72210.5,-5.05,-5.85,-5.97,0,*54
1487829967.06,45252,10.5,72196.0,-5.03,-5.93,-5.93,0,*52
1487829968.3,45253,10.5,72188.3,-5.03,-5.85,-5.97,0,*50
1487829969.55,45254,10.5,72186.8,-5.03,-5.93,-5.97,0,*50
1487829970.77,45255,10.5,72198.3,-5.05,-5.89,-6.01,0,*50
1487829972.0,45256,10.5,72180.8,-5.05,-5.89,-6.01,0,*53
1487829973.19,45257,10.5,72184.5,-5.05,-5.97,-6.09,0,*55
1487829974.42,45258,10.5,72204.8,-5.05,-5.89,-6.01,0,*5D
1487829975.61,45259,10.5,72214.8,-5.05,-5.97,-6.01,0,*53
1487829976.83,45260,10.5,72212.3,-5.05,-5.89,-5.97,0,*5A
1487829978.03,45261,10.5,72188.8,-5.05,-5.97,-6.01,0,*58
1487829979.25,45262,10.5,72190.3,-5.01,-5.85,-6.05,0,*58
1487829980.47,45263,10.5,72182.0,-5.03,-5.97,-5.97,0,*50
1487829981.74,45264,10.5,72196.3,-5.03,-5.85,-5.93,0,*50
1487829982.99,45265,10.5,72210.3,-5.03,-6.09,-6.19,0,*57
1487829984.21,45266,10.44,72208.5,-5.03,-6.05,-6.09,0,*59
1487829985.43,45267,10.5,72196.0,-5.05,-6.09,-6.23,0,*5A
1487829986.63,45268,10.5,72202.8,-5.05,-6.13,-6.35,0,*59
1487829987.86,45269,10.44,72178.0,-5.05,-6.09,-6.27,0,*50
1487829989.08,45270,10.5,72162.0,-5.05,-6.13,-6.27,0,*53
1487829990.29,45271,10.5,72166.3,-5.05,-6.13,-6.35,0,*51
1487829991.51,45272,10.5,72172.0,-5.05,-6.13,-6.27,0,*51
1487829992.73,45273,10.5,72188.5,-5.05,-6.13,-6.23,0,*54
1487829993.95,45274,10.5,72180.0,-5.07,-6.09,-6.13,0,*59
1487829995.17,45275,10.5,72184.5,-5.07,-6.09,-6.09,0,*53
1487829996.37,45276,10.5,72174.8,-5.05,-6.01,-6.13,0,*51
1487829997.57,45277,10.5,72166.0,-5.05,-6.01,-6.13,0,*50
1487829998.77,45278,10.5,72162.3,-5.05,-6.09,-6.13,0,*57
1487830000.01,45279,10.5,72170.0,-5.03,-5.97,-6.19,0,*5E
1487830001.26,45280,10.5,72172.0,-5.03,-6.05,-6.19,0,*50
1487830002.51,45281,10.5,72184.0,-5.05,-6.23,-6.27,0,*5E
1487830003.75,45282,10.5,72168.8,-5.03,-5.97,-6.19,0,*5A
1487830005.0,45283,10.5,72174.5,-5.03,-6.19,-6.31,0,*54
1487830006.23,45284,10.5,72180.8,-5.03,-6.09,-6.31,0,*52
1487830007.45,45285,10.5,72172.3,-5.05,-6.13,-6.27,0,*59
1487830008.65,45286,10.5,72204.8,-5.05,-6.01,-6.13,0,*5E
1487830009.85,45287,10.5,72202.5,-5.05,-6.09,-6.13,0,*57
1487830011.05,45288,10.5,72204.5,-5.05,-6.01,-6.01,0,*53
1487830012.25,45289,10.5,72192.3,-5.05,-5.97,-6.01,0,*5E
1487830013.45,45290,10.5,72184.3,-5.05,-6.09,-6.09,0,*5A
1487830014.66,45291,10.5,72206.0,-5.03,-5.97,-6.09,0,*59
1487830015.91,45292,10.5,72194.0,-5.03,-5.85,-5.97,0,*5D
1487830017.15,45293,10.5,72184.3,-5.03,-5.93,-6.05,0,*53
1487830018.4,45294,10.5,72190.8,-5.03,-5.93,-6.05,0,*54
1487830019.62,45295,10.5,72156.8,-5.03,-5.97,-6.09,0,*5D
1487830020.86,45296,10.5,72176.5,-5.03,-6.05,-6.19,0,*57
1487830022.1,45297,10.5,72172.3,-5.03,-6.05,-6.19,0,*56
1487830023.29,45298,10.5,72172.0,-5.01,-6.05,-6.09,0,*5A
1487830024.53,45299,10.5,72158.0,-5.03,-6.05,-6.23,0,*51
1487830025.74,45300,10.5,72152.3,-5.03,-5.97,-6.05,0,*5C
1487830026.96,45301,10.5,72154.5,-5.03,-5.97,-6.05,0,*5D
1487830028.21,45302,10.5,72122.5,-5.03,-6.05,-6.19,0,*5B
1487830029.43,45303,10.5,72124.0,-5.03,-6.09,-6.31,0,*5C
1487830030.68,45304,10.5,72178.3,-5.03,-6.05,-6.19,0,*5D
1487830031.89,45305,10.5,72184.0,-5.01,-6.05,-6.23,0,*57
1487830033.13,45306,10.5,72140.8,-5.03,-6.09,-6.23,0,*5A
1487830034.34,45307,10.5,72146.5,-5.03,-6.05,-6.09,0,*5F
1487830035.57,45308,10.5,72188.0,-5.05,-6.09,-6.27,0,*56
1487830036.77,45309,10.5,72198.3,-5.05,-6.09,-6.13,0,*50
1487830037.96,45310,10.5,72214.8,-5.01,-5.97,-6.09,0,*53
1487830039.18,45311,10.5,72208.0,-5.03,-5.97,-6.05,0,*5C
1487830040.42,45312,10.5,72216.0,-5.03,-5.93,-6.05,0,*5B
1487830041.7,45313,10.5,72224.8,-5.03,-5.93,-5.93,0,*56
1487830042.91,45314,10.5,72230.3,-5.03,-5.97,-6.05,0,*59
1487830044.13,45315,10.5,72240.5,-5.03,-5.97,-6.09,0,*54
1487830045.38,45316,10.5,72244.8,-5.01,-5.85,-5.93,0,*56
1487830046.63,45317,10.5,72248.8,-5.03,-5.93,-5.97,0,*56
1487830047.82,45318,10.5,72236.0,-5.01,-5.97,-6.09,0,*5B
1487830049.05,45319,10.5,72220.5,-5.03,-6.05,-6.23,0,*58
1487830050.3,45320,10.5,72218.5,-5.03,-5.97,-6.19,0,*53
1487830051.51,45321,10.5,72214.8,-5.03,-6.05,-6.09,0,*5B
1487830052.76,45322,10.5,72214.0,-5.03,-6.05,-6.19,0,*59
1487830053.97,45323,10.5,72214.0,-5.03,-5.97,-5.97,0,*55
1487830055.19,45324,10.5,72218.8,-5.03,-5.97,-5.97,0,*52
1487830056.44,45325,10.5,72224.0,-5.03,-5.85,-5.97,0,*50
1487830057.71,45326,10.5,72224.3,-5.03,-5.93,-5.93,0,*50
1487830058.96,45327,10.5,72218.5,-5.03,-5.93,-5.97,0,*55
1487830060.2,45328,10.5,72214.3,-5.03,-5.85,-5.97,0,*5D
1487830061.48,45329,10.5,72208.3,-5.03,-5.85,-5.85,0,*5F
1487830062.76,45330,10.5,72208.5,-5.03,-5.85,-5.93,0,*50
1487830064.03,45331,10.5,72210.5,-5.03,-5.81,-5.85,0,*52
1487830065.31,45332,10.5,72214.8,-5.03,-5.77,-5.85,0,*58
1487830066.55,45333,10.5,72220.0,-5.01,-5.81,-5.93,0,*55
1487830067.83,45334,10.5,72222.8,-5.03,-5.81,-5.85,0,*57
1487830069.08,45335,10.5,72234.5,-5.01,-5.77,-5.85,0,*5D
1487830070.32,45336,10.5,72234.0,-5.01,-5.81,-5.93,0,*50
1487830071.54,45337,10.5,72228.3,-5.01,-5.81,-5.97,0,*55
1487830072.82,45338,10.5,72236.5,-5.03,-5.85,-5.85,0,*5F
1487830074.07,45339,10.5,72232.8,-5.01,-5.85,-5.93,0,*5B
1487830075.35,45340,10.5,72234.0,-4.97,-5.81,-5.81,0,*5C
1487830076.62,45341,10.5,72236.0,-4.97,-5.81,-5.89,0,*55
1487830077.88,45342,10.5,72238.5,-5.01,-5.85,-5.85,0,*50
1487830079.13,45343,10.5,72240.0,-5.01,-5.85,-5.93,0,*56
1487830080.35,45344,10.5,72244.3,-5.01,-5.85,-5.97,0,*55
1487830081.57,45345,10.5,72240.8,-5.01,-5.93,-5.97,0,*53
1487830082.79,45346,10.44,72236.0,-5.01,-5.85,-5.97,0,*57
1487830084.04,45347,10.5,72238.5,-5.01,-5.85,-5.93,0,*52
1487830085.28,45348,10.5,72238.5,-5.01,-5.85,-5.93,0,*5D
1487830086.53,45349,10.5,72224.3,-5.01,-5.85,-5.93,0,*5C
1487830087.78,45350,10.5,72222.5,-5.01,-5.85,-5.81,0,*57
1487830089.03,45351,10.5,72222.3,-5.01,-5.81,-5.81,0,*52
1487830090.28,45352,10.5,72224.8,-5.01,-5.81,-5.93,0,*52
1487830091.53,45353,10.5,72226.5,-5.01,-5.85,-5.93,0,*57
1487830092.8,45354,10.5,72224.3,-4.97,-5.81,-5.81,0,*59
1487830094.07,45355,10.5,72226.8,-4.97,-5.73,-5.77,0,*5C
1487830095.34,45356,10.5,72228.0,-4.97,-5.77,-5.77,0,*5B
1487830096.62,45357,10.5,72228.3,-4.97,-5.77,-5.89,0,*5B
1487830097.89,45358,10.5,72238.5,-4.97,-5.77,-5.81,0,*5C
1487830099.17,45359,10.44,72236.5,-4.97,-5.81,-5.93,0,*57
1487830100.36,45360,10.5,72232.5,-5.01,-5.97,-6.05,0,*58
1487830101.55,45361,10.5,72226.5,-5.01,-5.97,-6.05,0,*59
1487830102.77,45362,10.44,72212.3,-5.01,-5.93,-6.05,0,*5E
1487830103.96,45363,10.5,72208.8,-5.01,-6.05,-6.05,0,*53
1487830105.18,45364,10.5,72206.5,-4.95,-5.93,-6.05,0,*54
1487830106.42,45365,10.5,72206.3,-4.97,-5.89,-6.01,0,*58
1487830107.7,45366,10.5,72210.3,-4.97,-5.93,-5.93,0,*58
1487830108.98,45367,10.5,72222.5,-4.97,-5.81,-5.93,0,*5A
1487830110.26,45368,10.5,72220.0,-4.97,-5.81,-5.93,0,*55
1487830111.53,45369,10.5,72224.5,-4.97,-5.89,-5.81,0,*5F
1487830112.75,45370,10.5,72224.5,-5.01,-5.85,-5.97,0,*52
1487830114.0,45371,10.5,72228.0,-5.01,-5.85,-5.93,0,*57
1487830115.25,45372,10.5,72240.0,-5.01,-5.85,-5.93,0,*54
1487830116.47,45373,10.44,72238.3,-5.01,-5.93,-5.97,0,*56
1487830117.75,45374,10.5,72242.3,-4.97,-5.81,-5.81,0,*5B